GFSNGP_850_temp_105.txt.gz
Temp
8 9 9 9 10 11 11 12 9 10 9 12 15 14 14 14 17 19 20 20 20 18 16 17 16 16 16 15 12 12 12 12 11 10 10 10 10 10 10 10 10 10 9 9
7 8 9 8 10 11 12 12 12 13 13 15 17 17 17 17 18 19 19 19 20 18 18 16 17 17 16 16 14 12 12 12 12 11 10 10 10 10 9 9 9 9 9 9
5 7 8 7 9 10 11 13 13 12 13 15 16 17 13 13 13 13 13 15 18 20 18 16 15 17 17 16 15 13 12 12 11 11 11 10 10 10 10 10 10 10 10 9
4 5 5 8 11 12 12 13 13 11 10 11 11 13 11 11 11 11 12 13 13 15 19 19 18 16 17 16 15 14 13 12 11 11 11 10 10 10 10 10 10 9 9 9
4 5 6 9 11 12 12 11 9 10 9 10 10 13 10 10 10 10 11 11 12 12 16 18 17 17 14 15 15 14 13 12 12 11 11 10 10 10 10 9 9 8 8 8
3 4 4 9 10 11 11 8 8 9 8 9 10 8 10 9 9 10 10 11 12 13 13 15 18 17 15 15 14 13 13 12 12 11 11 11 11 10 9 8 8 7 7 5
3 3 5 9 11 12 8 7 8 8 9 9 7 8 9 8 8 8 8 9 10 11 11 12 11 14 15 15 14 12 12 12 12 12 11 11 10 9 8 8 7 5 4 2
3 2 4 9 11 9 7 8 9 9 8 9 9 9 8 7 7 6 6 7 7 7 8 9 10 10 13 13 12 11 10 10 10 10 10 9 9 7 7 6 5 3 1 -1
4 4 7 7 7 8 8 8 8 8 8 8 8 8 8 6 5 4 4 5 5 5 5 5 6 7 9 7 7 8 8 7 7 6 6 5 5 3 1 1 1 -1 -1 -2
5 6 7 7 8 8 9 9 9 9 9 8 7 6 6 6 5 4 3 3 3 3 3 4 4 5 6 6 6 6 6 5 3 3 2 1 0 -0 -1 -2 -2 -2 -3 -2
4 5 7 6 8 9 9 9 9 9 8 8 6 5 5 4 3 2 1 1 0 1 1 1 1 2 3 3 3 4 4 1 1 -0 -0 -1 -1 -3 -2 -3 -3 -3 -4 -5
4 5 4 6 9 9 9 9 8 9 7 9 5 4 3 2 1 -0 -0 -1 -1 -2 -1 -1 -1 -1 -2 -1 0 1 0 -1 -2 -2 -2 -3 -3 -6 -6 -6 -5 -5 -6 -5
7 8 8 9 9 9 9 9 7 7 5 4 3 1 0 0 -1 -2 -2 -1 -2 -2 -3 -3 -3 -3 -3 -3 -2 -3 -4 -4 -4 -4 -4 -4 -4 -4 -6 -8 -8 -7 -5 -5
8 9 9 9 8 8 8 7 6 5 4 2 1 -0 -1 -2 -3 -2 -2 -3 -3 -3 -3 -4 -4 -5 -5 -4 -3 -3 -3 -3 -4 -4 -4 -4 -5 -6 -6 -6 -6 -8 -10 -10
8 8 8 7 7 7 7 7 5 5 3 0 -1 -2 -3 -3 -4 -4 -4 -4 -3 -3 -3 -3 -3 -5 -4 -2 -1 -3 -4 -5 -6 -7 -6 -5 -5 -6 -7 -8 -10 -12 -13 -13
7 7 6 6 5 6 5 5 5 3 2 -1 -2 -3 -4 -4 -5 -5 -5 -5 -3 -4 -4 -3 -4 -5 -5 -3 -3 -4 -4 -5 -5 -6 -7 -6 -7 -7 -9 -10 -11 -12 -13 -13
3 2 3 3 4 3 4 4 4 3 1 -2 -3 -5 -6 -6 -6 -6 -6 -6 -5 -6 -6 -6 -6 -6 -5 -4 -4 -5 -6 -7 -7 -7 -7 -8 -9 -9 -10 -11 -12 -13 -13 -13
-0 0 1 1 1 2 2 1 1 -0 -1 -2 -4 -6 -6 -6 -7 -8 -8 -7 -7 -7 -7 -7 -7 -6 -6 -5 -5 -6 -6 -6 -7 -8 -9 -9 -10 -11 -11 -12 -12 -12 -13 -14
-4 -4 -2 -1 -1 -0 0 -1 -1 -3 -4 -4 -5 -6 -7 -7 -8 -9 -9 -8 -9 -9 -10 -9 -8 -7 -6 -6 -6 -6 -6 -7 -8 -9 -9 -11 -11 -12 -12 -12 -13 -14 -14 -13
-7 -6 -4 -4 -3 -2 -2 -3 -3 -3 -4 -6 -7 -8 -9 -9 -9 -9 -9 -9 -10 -10 -10 -9 -8 -8 -6 -6 -7 -7 -8 -9 -9 -10 -11 -11 -12 -13 -14 -14 -14 -14 -14 -14
-8 -7 -7 -6 -5 -5 -5 -5 -5 -6 -7 -8 -8 -9 -9 -10 -10 -10 -9 -10 -12 -11 -12 -11 -8 -7 -8 -8 -8 -8 -9 -9 -10 -11 -12 -12 -13 -13 -14 -14 -14 -14 -15 -15
-9 -9 -8 -8 -8 -7 -8 -8 -8 -8 -9 -9 -9 -10 -10 -11 -11 -11 -11 -11 -13 -12 -11 -10 -10 -10 -10 -10 -10 -10 -10 -10 -11 -12 -13 -13 -13 -13 -14 -14 -14 -15 -16 -15
-10 -10 -10 -10 -10 -10 -10 -10 -10 -10 -11 -11 -11 -11 -11 -11 -11 -10 -11 -13 -12 -12 -11 -10 -11 -10 -10 -10 -10 -11 -11 -11 -12 -12 -13 -13 -14 -14 -14 -15 -15 -15 -15 -15
-11 -11 -11 -12 -12 -12 -12 -13 -12 -12 -12 -13 -12 -12 -11 -11 -12 -12 -12 -12 -12 -11 -11 -12 -11 -11 -11 -11 -11 -12 -12 -12 -13 -13 -13 -14 -14 -14 -14 -15 -15 -15 -15 -15
-11 -12 -12 -13 -13 -13 -13 -13 -13 -14 -13 -13 -13 -13 -12 -12 -10 -13 -13 -12 -12 -12 -11 -12 -11 -12 -12 -12 -12 -12 -13 -13 -13 -14 -14 -14 -14 -14 -15 -15 -15 -16 -16 -16
-11 -12 -13 -13 -14 -14 -14 -14 -14 -14 -14 -14 -14 -14 -13 -13 -14 -14 -13 -13 -13 -12 -12 -13 -13 -13 -13 -13 -13 -13 -14 -14 -14 -14 -14 -14 -15 -15 -15 -16 -16 -16 -16 -17
-12 -13 -13 -14 -14 -14 -14 -14 -14 -14 -14 -14 -14 -15 -14 -15 -15 -14 -13 -13 -13 -13 -13 -12 -13 -13 -13 -13 -13 -14 -14 -14 -15 -15 -15 -15 -16 -16 -16 -16 -17 -17 -17 -17

GFSNGP_850_temp_108.txt.gz
Temp
7 7 7 7 7 8 8 9 7 9 10 12 12 13 12 11 10 12 12 15 16 15 15 13 13 12 14 16 16 14 13 13 11 10 10 10 10 10 10 10 10 10 10 9
6 7 7 6 7 7 8 9 10 11 11 14 13 14 13 13 12 13 11 10 12 14 15 16 14 14 12 11 15 15 13 13 11 11 9 10 9 9 9 9 9 9 9 9
5 6 6 5 7 7 8 10 10 9 11 10 10 13 11 11 10 9 9 9 10 11 11 13 16 17 14 12 11 13 14 13 12 11 10 10 9 9 9 8 8 8 8 8
3 5 3 7 9 9 9 10 11 10 9 9 10 9 9 9 9 8 8 8 9 11 12 12 15 14 14 13 12 11 12 13 12 11 10 9 9 9 9 9 9 9 9 9
1 3 6 7 9 8 7 9 8 8 8 9 9 9 8 8 8 8 8 8 8 9 11 13 14 13 17 14 13 11 10 11 12 12 10 9 9 9 9 9 9 9 9 9
1 2 4 7 8 10 9 7 7 8 8 8 8 7 7 7 7 8 8 8 8 8 9 12 12 12 12 13 15 12 11 10 10 11 11 10 9 9 9 9 9 8 8 7
3 1 3 7 9 9 6 7 7 8 8 7 7 7 8 7 7 7 6 7 7 7 7 10 12 11 11 12 12 11 11 11 10 10 11 10 10 9 9 8 8 7 6 5
3 1 3 7 6 8 6 8 8 8 8 7 7 7 6 6 5 5 5 6 6 6 5 5 8 10 10 10 9 9 9 10 10 10 10 10 9 9 8 7 6 4 4 2
2 3 6 6 6 7 8 8 8 8 8 8 7 6 5 3 4 4 4 4 4 5 5 4 5 6 7 7 7 7 8 8 8 8 8 8 8 6 5 4 4 2 -0 -3
5 4 4 5 7 7 8 8 9 8 8 8 7 5 4 3 3 2 2 2 1 3 3 4 3 4 4 5 5 6 5 5 4 4 3 2 2 -1 -1 -2 -2 -4 -5 -6
3 2 3 5 5 8 8 9 8 8 7 6 5 5 2 1 2 1 0 1 0 1 1 0 1 2 3 2 2 3 3 2 2 1 0 -1 -2 -3 -4 -5 -4 -5 -4 -5
3 3 4 5 7 8 8 7 7 7 5 5 3 5 2 1 -0 -1 -1 -1 -1 -1 -1 -2 -1 -1 -1 -0 -0 0 -1 -2 -3 -3 -4 -4 -4 -5 -4 -4 -4 -4 -4 -5
6 6 6 7 7 7 8 6 5 6 5 3 2 1 1 -1 -1 -2 -2 -2 -2 -2 -2 -3 -3 -3 -3 -2 -2 -2 -4 -5 -6 -5 -6 -6 -6 -6 -9 -9 -8 -8 -8 -7
7 7 6 6 6 6 5 5 5 4 3 1 -0 0 -1 -2 -3 -3 -4 -4 -3 -3 -3 -3 -3 -3 -3 -3 -3 -3 -5 -5 -4 -4 -4 -4 -5 -5 -6 -7 -8 -12 -13 -12
6 6 5 5 5 5 5 4 4 3 2 1 -0 -0 -2 -3 -3 -4 -5 -4 -4 -4 -4 -4 -5 -6 -5 -4 -3 -3 -3 -3 -4 -4 -5 -5 -6 -7 -8 -9 -9 -10 -11 -12
2 4 4 3 3 4 5 4 3 2 1 0 -1 -2 -3 -4 -5 -5 -5 -5 -4 -5 -6 -5 -5 -6 -5 -5 -4 -5 -5 -5 -5 -5 -6 -6 -7 -6 -8 -9 -11 -12 -11 -11
-1 -2 0 1 1 1 2 2 2 1 -1 -2 -2 -3 -4 -5 -5 -6 -6 -6 -5 -6 -6 -6 -7 -6 -5 -5 -5 -4 -5 -6 -6 -6 -7 -7 -7 -8 -9 -9 -11 -12 -12 -12
-4 -4 -3 -3 -1 0 0 -1 -1 -1 -2 -3 -4 -4 -5 -6 -6 -7 -7 -7 -7 -7 -7 -7 -7 -6 -6 -6 -5 -5 -6 -6 -7 -7 -8 -8 -9 -9 -10 -10 -12 -12 -13 -13
-7 -6 -5 -3 -4 -2 -1 -2 -3 -3 -3 -3 -4 -6 -7 -7 -8 -8 -8 -8 -8 -8 -9 -8 -7 -7 -7 -6 -6 -6 -6 -6 -6 -7 -7 -8 -9 -11 -12 -13 -13 -12 -13 -13
-7 -5 -5 -5 -5 -4 -4 -4 -4 -4 -5 -5 -6 -7 -8 -9 -9 -9 -9 -8 -8 -9 -9 -8 -8 -8 -8 -7 -7 -7 -7 -7 -7 -8 -10 -10 -11 -12 -12 -12 -12 -12 -13 -13
-7 -7 -6 -6 -6 -6 -6 -6 -6 -6 -7 -7 -7 -8 -9 -10 -10 -10 -9 -9 -11 -10 -10 -9 -8 -8 -8 -8 -8 -9 -9 -9 -10 -11 -11 -11 -11 -12 -12 -12 -12 -12 -13 -13
-9 -9 -8 -8 -8 -8 -8 -8 -8 -8 -9 -9 -9 -9 -10 -11 -11 -10 -10 -10 -11 -11 -10 -10 -10 -8 -8 -9 -9 -9 -9 -10 -10 -11 -11 -11 -11 -12 -12 -13 -13 -13 -14 -14
-10 -10 -10 -10 -10 -10 -10 -10 -10 -10 -10 -11 -11 -11 -11 -11 -11 -11 -11 -12 -12 -11 -11 -11 -10 -10 -10 -9 -9 -10 -10 -11 -11 -11 -11 -12 -12 -13 -13 -14 -14 -14 -14 -15
-10 -11 -11 -11 -12 -12 -11 -12 -12 -12 -12 -12 -12 -12 -11 -11 -12 -12 -12 -12 -12 -12 -11 -11 -11 -11 -11 -10 -10 -11 -11 -12 -12 -12 -13 -13 -13 -14 -14 -14 -14 -15 -15 -16
-11 -12 -12 -12 -13 -13 -13 -13 -13 -13 -13 -13 -13 -13 -13 -12 -11 -13 -13 -13 -13 -12 -11 -12 -12 -12 -11 -11 -12 -12 -12 -12 -13 -13 -14 -14 -14 -14 -14 -15 -15 -16 -16 -16
-12 -12 -13 -13 -13 -14 -14 -14 -14 -14 -14 -14 -14 -14 -13 -13 -13 -13 -14 -14 -13 -12 -12 -12 -12 -12 -12 -12 -12 -13 -13 -13 -14 -14 -14 -15 -15 -15 -16 -16 -16 -16 -16 -17
-12 -13 -14 -14 -14 -14 -14 -14 -14 -14 -14 -14 -14 -15 -14 -14 -14 -14 -14 -14 -13 -13 -13 -13 -13 -13 -13 -13 -14 -14 -14 -14 -15 -15 -15 -16 -16 -16 -16 -16 -17 -17 -17 -17

GFSNGP_850_temp_111.txt.gz
Temp
6 6 7 6 6 6 6 6 5 7 7 9 10 11 11 12 11 9 8 9 9 10 11 11 12 12 11 12 10 9 10 11 10 10 10 10 9 9 9 9 9 9 9 9
5 6 6 5 6 6 6 6 7 7 7 10 11 11 12 12 11 9 8 8 8 10 10 11 10 10 11 12 12 10 10 10 9 10 10 10 10 9 9 9 9 9 8 9
4 5 5 5 6 6 6 7 7 6 8 10 9 10 11 10 10 8 8 8 8 10 10 12 12 11 11 12 11 13 11 10 9 9 9 10 10 9 9 9 9 8 8 8
2 4 3 6 7 7 7 8 8 8 8 8 8 8 9 8 8 7 8 7 9 8 10 11 11 12 12 12 11 11 11 11 10 9 9 9 9 9 8 8 9 8 8 8
-0 2 5 6 7 7 6 6 7 8 7 8 8 7 7 7 7 6 6 6 7 8 7 9 11 12 12 11 11 11 12 11 10 10 9 8 9 9 9 9 8 8 8 8
0 1 1 6 8 8 7 5 6 6 6 7 7 7 7 7 6 5 5 4 6 7 7 8 10 10 10 10 10 10 14 13 11 10 10 9 9 8 9 8 8 8 7 8
2 -1 3 6 7 8 4 5 6 7 7 7 6 6 6 6 5 4 4 4 5 6 6 7 8 9 10 10 10 10 10 12 11 10 9 9 9 9 9 8 8 8 7 7
2 0 2 6 7 6 6 7 7 7 7 7 6 6 5 4 4 4 4 4 3 4 5 5 5 6 8 9 9 9 9 9 11 10 9 9 9 9 8 8 8 7 5 4
3 2 4 4 5 6 5 6 7 7 8 7 6 4 4 3 2 2 4 1 2 4 4 5 4 5 5 6 7 8 8 9 9 9 9 9 8 7 6 5 4 3 1 -0
3 3 3 4 5 6 6 6 7 7 7 5 4 3 2 3 2 1 1 0 0 1 2 2 4 3 4 4 4 6 7 6 7 7 6 4 3 4 4 1 1 -2 -3 -3
3 2 2 3 5 6 6 7 6 6 5 4 3 1 1 2 1 0 -1 -2 -1 -0 -0 0 1 2 2 3 3 4 4 3 3 2 1 0 -0 -2 -2 -4 -3 -5 -7 -6
2 3 2 2 4 4 4 4 3 4 4 3 1 -1 -1 -0 -1 -2 -1 -2 -2 -2 -2 -2 -1 0 -1 -0 1 3 2 0 -1 -1 -2 -3 -4 -5 -4 -4 -4 -3 -4 -4
5 5 5 4 4 4 4 4 4 4 2 0 -1 -1 -1 -2 -3 -2 -2 -2 -3 -3 -3 -3 -3 -2 -2 -2 -1 -0 0 -2 -3 -4 -4 -5 -5 -5 -6 -7 -6 -6 -6 -5
4 5 5 4 3 4 4 3 3 3 1 -1 -2 -2 -2 -3 -4 -3 -3 -4 -4 -4 -4 -5 -5 -4 -4 -4 -3 -3 -3 -4 -5 -5 -5 -5 -5 -5 -5 -6 -8 -10 -10 -7
0 2 2 3 2 2 2 2 2 2 1 -0 -2 -2 -3 -3 -3 -4 -4 -4 -5 -5 -6 -6 -6 -7 -6 -6 -5 -5 -5 -5 -5 -4 -5 -5 -6 -7 -7 -8 -8 -9 -10 -11
-1 -1 0 1 1 1 1 1 1 -0 -1 -2 -3 -3 -3 -4 -5 -5 -5 -5 -4 -5 -7 -7 -7 -8 -7 -7 -6 -6 -6 -6 -6 -6 -6 -6 -7 -7 -8 -9 -10 -11 -11 -10
-4 -4 -4 -4 -2 -2 -1 -1 -1 -2 -2 -3 -3 -4 -5 -5 -5 -6 -6 -6 -6 -6 -7 -7 -8 -8 -7 -7 -6 -5 -6 -6 -5 -5 -6 -6 -6 -6 -7 -8 -9 -10 -10 -11
-6 -6 -6 -6 -5 -4 -3 -2 -2 -2 -3 -4 -4 -5 -5 -6 -6 -7 -7 -7 -7 -7 -7 -7 -7 -7 -6 -6 -6 -6 -6 -6 -6 -6 -6 -6 -7 -7 -8 -9 -9 -10 -11 -12
-7 -7 -6 -6 -6 -6 -5 -4 -4 -4 -4 -4 -5 -6 -6 -7 -8 -8 -8 -8 -8 -7 -8 -8 -7 -7 -6 -6 -6 -6 -6 -6 -6 -7 -8 -8 -8 -9 -9 -10 -10 -11 -12 -12
-6 -6 -6 -6 -6 -6 -6 -5 -5 -5 -5 -6 -6 -7 -8 -8 -8 -8 -8 -8 -8 -8 -9 -8 -7 -7 -7 -7 -6 -6 -6 -6 -6 -7 -8 -9 -9 -10 -11 -11 -11 -12 -12 -12
-7 -7 -7 -8 -8 -7 -7 -7 -7 -7 -7 -8 -8 -8 -9 -10 -10 -9 -9 -8 -10 -10 -9 -8 -8 -8 -8 -7 -7 -7 -7 -7 -8 -8 -9 -9 -10 -11 -11 -11 -12 -12 -12 -13
-8 -8 -8 -9 -9 -9 -8 -9 -9 -9 -9 -9 -10 -9 -10 -11 -10 -10 -10 -9 -11 -10 -10 -9 -9 -9 -7 -8 -8 -8 -8 -8 -9 -9 -10 -10 -11 -11 -12 -12 -13 -13 -14 -14
-10 -10 -10 -10 -10 -10 -10 -10 -10 -11 -10 -11 -11 -11 -11 -11 -11 -11 -11 -12 -11 -11 -10 -10 -9 -9 -9 -9 -9 -9 -9 -10 -10 -11 -11 -12 -12 -13 -13 -13 -14 -14 -15 -15
-11 -11 -11 -11 -12 -12 -12 -12 -12 -12 -12 -12 -12 -12 -11 -11 -12 -12 -12 -12 -12 -11 -11 -10 -11 -11 -11 -10 -10 -11 -11 -11 -12 -12 -13 -13 -13 -14 -14 -14 -15 -15 -15 -15
-11 -12 -12 -12 -13 -13 -13 -13 -13 -13 -13 -13 -13 -13 -13 -12 -11 -13 -13 -13 -12 -12 -11 -12 -12 -12 -11 -11 -12 -12 -12 -13 -13 -13 -13 -14 -14 -14 -15 -15 -15 -15 -16 -16
-12 -12 -13 -13 -14 -14 -14 -14 -14 -14 -14 -14 -14 -14 -13 -13 -13 -13 -13 -13 -13 -13 -12 -12 -12 -12 -12 -12 -13 -13 -13 -13 -14 -14 -14 -14 -15 -15 -15 -15 -16 -16 -16 -16
-12 -13 -13 -14 -14 -14 -14 -14 -14 -14 -14 -14 -14 -14 -14 -14 -14 -14 -14 -14 -13 -13 -13 -13 -13 -13 -13 -13 -13 -14 -14 -14 -14 -15 -15 -15 -15 -16 -16 -16 -16 -16 -17 -17

GFSNGP_850_temp_114.txt.gz
Temp
5 6 6 6 5 5 5 5 4 6 6 7 8 9 9 10 10 9 8 10 7 7 8 7 9 9 10 10 11 12 10 9 9 8 8 8 8 8 9 9 9 9 8 8
4 5 5 5 4 4 4 5 5 6 6 8 8 9 9 10 10 9 9 10 8 8 8 7 7 9 9 10 10 10 11 10 9 8 8 8 8 8 8 8 9 9 9 9
4 5 4 4 5 5 5 5 5 5 6 7 7 8 8 9 9 8 8 8 6 7 7 7 7 8 9 10 10 10 10 10 9 9 9 9 8 8 9 8 8 8 8 8
2 3 2 5 6 6 5 6 6 7 7 7 8 8 8 8 7 7 6 9 6 6 7 7 8 8 8 9 10 10 10 9 9 9 9 9 8 9 8 8 7 7 7 7
-1 2 4 4 6 6 5 5 6 6 6 7 8 7 7 6 6 5 5 5 5 5 5 6 7 8 10 9 9 10 10 10 10 10 9 9 8 8 8 8 8 8 7 7
1 1 0 4 6 6 5 4 4 3 5 6 7 6 6 5 6 5 4 4 4 4 4 5 5 6 10 11 9 10 10 10 10 10 11 10 9 8 8 8 8 7 7 7
2 1 3 4 6 7 4 4 2 4 5 6 5 5 5 5 5 4 4 4 3 2 2 3 4 6 8 9 10 10 10 10 9 9 10 9 8 8 8 8 8 7 7 7
2 1 1 4 4 4 4 4 4 4 5 6 7 5 4 4 3 3 3 2 2 2 2 3 4 4 6 8 8 9 9 9 9 9 9 9 9 8 8 8 7 7 5 4
2 2 2 2 3 4 5 4 4 5 6 5 5 3 2 1 1 2 0 -0 1 1 1 2 2 3 4 6 5 8 10 9 9 9 9 9 8 7 7 6 6 5 3 2
2 3 2 2 4 4 3 3 4 5 6 5 4 2 1 0 0 0 -0 -0 -0 0 0 0 0 1 3 3 4 5 6 7 7 6 8 8 6 5 4 3 3 1 2 -1
2 2 2 4 3 3 3 3 3 3 4 3 2 0 -0 -0 -1 -2 -1 -1 -1 -1 -2 -2 -1 -1 -0 1 1 3 3 2 3 3 3 5 2 1 1 -0 -0 -2 -2 -4
2 1 1 2 2 2 1 0 0 2 2 0 -0 -0 -1 -1 -2 -2 -2 -2 -2 -2 -3 -3 -3 -2 -2 -1 -0 1 1 0 -1 -0 -0 -1 -2 -4 -4 -3 -3 -3 -4 -2
-0 1 2 0 1 1 1 0 -0 1 1 -2 -1 -1 -1 -1 -3 -3 -3 -3 -3 -3 -4 -4 -3 -4 -4 -3 -2 -1 -2 -2 -3 -3 -3 -3 -4 -5 -6 -6 -5 -5 -5 -5
-1 1 0 -0 0 0 -0 -1 -0 -0 -2 -2 -2 -2 -2 -2 -3 -3 -4 -5 -4 -4 -4 -5 -5 -4 -5 -5 -4 -3 -3 -5 -5 -5 -5 -5 -5 -5 -5 -6 -8 -9 -9 -8
-1 -3 -3 -2 0 -0 -1 -1 -1 -1 -2 -3 -3 -3 -3 -4 -4 -4 -5 -5 -5 -6 -6 -6 -6 -7 -6 -6 -5 -6 -6 -6 -5 -6 -6 -6 -6 -6 -7 -8 -9 -9 -10 -11
-4 -4 -3 -4 -4 -3 -2 -2 -2 -3 -3 -3 -3 -3 -3 -4 -5 -6 -6 -6 -6 -6 -8 -7 -7 -7 -7 -7 -7 -7 -7 -7 -7 -7 -7 -7 -7 -7 -7 -7 -7 -8 -9 -8
-5 -5 -6 -6 -6 -5 -5 -4 -3 -3 -4 -4 -4 -5 -6 -6 -6 -7 -7 -7 -7 -7 -8 -7 -8 -8 -7 -7 -7 -7 -7 -7 -7 -7 -7 -6 -6 -6 -7 -7 -8 -8 -9 -9
-7 -7 -8 -8 -7 -6 -6 -6 -5 -5 -5 -5 -5 -6 -6 -7 -7 -7 -7 -8 -8 -8 -8 -8 -7 -7 -6 -7 -6 -6 -6 -7 -7 -6 -7 -7 -7 -7 -7 -8 -9 -9 -10 -11
-7 -7 -7 -9 -8 -7 -7 -6 -6 -6 -6 -6 -7 -7 -7 -8 -8 -8 -8 -8 -8 -8 -9 -8 -7 -6 -6 -6 -6 -6 -6 -6 -6 -7 -7 -7 -7 -8 -9 -9 -10 -10 -10 -11
-7 -8 -8 -8 -8 -8 -7 -7 -7 -7 -7 -8 -8 -8 -8 -9 -9 -9 -9 -8 -8 -8 -9 -9 -8 -7 -7 -7 -6 -6 -6 -6 -6 -7 -8 -8 -9 -9 -10 -10 -10 -11 -11 -12
-8 -8 -9 -9 -9 -9 -8 -9 -9 -8 -8 -9 -9 -9 -9 -10 -10 -9 -9 -9 -10 -9 -9 -9 -8 -8 -8 -7 -7 -7 -7 -7 -8 -8 -9 -9 -10 -10 -11 -11 -11 -12 -12 -13
-8 -8 -9 -10 -10 -10 -10 -10 -10 -10 -10 -10 -10 -10 -10 -10 -11 -10 -10 -10 -11 -10 -9 -9 -9 -9 -8 -8 -8 -8 -8 -8 -8 -9 -10 -10 -11 -11 -12 -12 -12 -13 -13 -13
-10 -10 -10 -10 -11 -11 -11 -11 -11 -11 -11 -11 -11 -11 -11 -11 -11 -11 -10 -11 -11 -11 -10 -10 -10 -9 -9 -9 -9 -9 -9 -10 -10 -11 -11 -12 -12 -12 -12 -13 -13 -13 -14 -14
-11 -11 -11 -12 -13 -13 -12 -12 -12 -12 -12 -12 -12 -12 -12 -11 -12 -12 -12 -12 -12 -11 -11 -10 -10 -10 -10 -10 -10 -10 -11 -11 -11 -12 -12 -12 -12 -13 -13 -13 -13 -14 -14 -14
-11 -12 -12 -13 -13 -13 -13 -14 -14 -13 -13 -13 -13 -13 -13 -12 -12 -13 -13 -13 -13 -12 -11 -11 -12 -12 -11 -11 -11 -11 -11 -12 -12 -12 -12 -13 -13 -13 -13 -14 -14 -14 -14 -15
-12 -12 -13 -13 -14 -14 -15 -15 -14 -14 -14 -14 -14 -14 -14 -14 -14 -14 -14 -13 -13 -12 -12 -12 -12 -12 -12 -12 -12 -12 -12 -12 -12 -13 -13 -13 -13 -14 -14 -14 -15 -15 -15 -16
-12 -13 -13 -14 -14 -15 -15 -15 -15 -15 -15 -15 -14 -15 -15 -15 -15 -14 -14 -14 -14 -13 -13 -13 -13 -13 -13 -13 -13 -13 -13 -13 -14 -14 -14 -14 -14 -15 -15 -15 -16 -16 -16 -16